Flag for U.S.A. Weather past 2 weeks in French Lick, Indiana, U.S.A.

Now
80 °F

Sunny.


Feels Like: 81 °F
Forecast: 60 / 85 °F
Wind: 3 mph from South

Location: Monroe County Airport

Current Time: Aug 1, 2014 at 7:07:21 PM

Latest Report: Aug 1, 2014 at 5:53 PM


Visibility: 10 mi

Pressure: 30.04 "Hg

Humidity: 54%

Dew point: 62 °F

Location of French LickLocation

Historic Weather in French Lick — Graph

°F

French Lick temperature yesterday

Maximum temperature yesterday: 80 °F (at 2:53 PM)
Minimum temperature yesterday: 58 °F (at 7:01 AM)
Average temperature yesterday: 69 °F

Past Weeks' High & Low Weather Summary

 TemperatureHumidityPressure
High85 °F (Jul 21, 4:53 PM)97% (Jul 21, 6:53 AM)30.17 "Hg (Jul 21, 6:53 AM)
Low52 °F (Jul 25, 6:53 AM)43% (Jul 18, 12:53 PM)29.74 "Hg (Jul 27, 5:53 PM)
Average69 °F75%30.03 "Hg
* Reported Jul 17 5:53 PM — Aug 1 5:53 PM, French Lick, Weather by CustomWeather, © 2014

Note: Actual official high and low records may vary slightly from our data, if they occured in-between our weather recording intervals... More about our weather records

Advertising

French Lick weather history for previous 24 hours

 ConditionsComfort  
Time TempWeatherWind HumidityBarometerVisibility
5:53 PM
Aug 1
80 °FSunny.3 mph54%30.04 "Hg10 mi
4:53 PM82 °FSunny.3 mph46%30.05 "Hg10 mi
3:53 PM82 °FSunny.6 mph48%30.05 "Hg10 mi
2:53 PM81 °FScattered clouds.3 mph47%30.07 "Hg10 mi
1:53 PM79 °FBroken clouds.No wind60%30.09 "Hg10 mi
12:53 PM80 °FBroken clouds.No wind51%30.10 "Hg10 mi
11:53 AM78 °FBroken clouds.No wind54%30.10 "Hg10 mi
10:53 AM79 °FSunny.No wind54%30.10 "Hg10 mi
9:53 AM75 °FSunny.No wind66%30.10 "Hg10 mi
8:53 AM66 °FSunny.No wind90%30.11 "Hg8 mi
7:53 AM59 °FFog.No wind93%30.10 "Hg5 mi
6:56 AM58 °FFog.No wind93%30.11 "Hg0 mi
6:03 AM59 °FFog.No wind93%30.10 "Hg0 mi
5:53 AM58 °FFog.No wind97%30.08 "Hg0 mi
4:53 AM58 °FFog.No wind93%30.07 "Hg3 mi
3:53 AM60 °FClear.No wind93%30.07 "Hg7 mi
2:56 AM60 °FFog.No wind93%30.09 "Hg3 mi
2:01 AM60 °FFog.No wind93%30.09 "Hg2 mi
12:53 AM61 °FFog.No wind93%30.08 "Hg5 mi
11:53 PM
Jul 31
63 °FClear.No wind90%30.08 "Hg10 mi
10:53 PM63 °FClear.No wind93%30.07 "Hg8 mi
9:53 PM65 °FSunny.No wind94%30.07 "Hg7 mi
8:53 PM70 °FSunny.No wind84%30.06 "Hg10 mi
7:53 PM75 °FSunny.No wind74%30.06 "Hg10 mi
Weather by CustomWeather, © 2014

See weather overviewHow to use our weather pages